Time,TemperatureF,DewpointF,PressureIn,WindDirection,WindDirectionDegrees,WindSpeedMPH,WindSpeedGustMPH,Humidity,HourlyPrecipIn,Conditions,Clouds,dailyrainin,SolarRadiationWatts/m^2,SoftwareType,DateUTC
2013-05-10 00:00:00,75.4,71.9,30.12,West,270,3.0,6.0,89,0.00,,---,0.00,0.00,VWS V14.01,2013-05-10 04:00:00,
2013-05-10 00:12:00,75.3,72.0,30.14,West,264,3.0,4.0,89,0.00,,,0.00,0,weatherlink.com 1.10,2013-05-10 04:12:00,
2013-05-10 00:27:00,75.3,72.0,30.13,WSW,257,2.0,4.0,89,0.00,,,0.00,0,weatherlink.com 1.10,2013-05-10 04:27:00,
2013-05-10 00:30:00,75.3,71.8,30.13,WSW,248,2.0,4.0,89,0.00,,---,0.00,0.00,VWS V14.01,2013-05-10 04:30:00,
2013-05-10 00:42:00,75.3,72.0,30.14,WSW,250,2.0,4.0,90,0.00,,,0.00,0,weatherlink.com 1.10,2013-05-10 04:42:00,
2013-05-10 00:57:00,75.2,72.0,30.14,WSW,252,1.0,3.0,90,0.00,,,0.00,0,weatherlink.com 1.10,2013-05-10 04:57:00,
2013-05-10 01:00:00,75.2,72.1,30.13,WSW,248,2.0,4.0,90,0.00,,---,0.00,0.00,VWS V14.01,2013-05-10 05:00:00,
2013-05-10 01:12:00,75.2,72.0,30.13,West,259,3.0,6.0,90,0.00,,,0.00,0,weatherlink.com 1.10,2013-05-10 05:12:00,
2013-05-10 01:27:00,75.4,73.0,30.13,South,188,5.0,7.0,91,0.00,,,0.00,0,weatherlink.com 1.10,2013-05-10 05:27:00,
2013-05-10 01:30:00,75.5,72.7,30.12,WSW,248,3.0,7.0,91,0.00,,---,0.00,0.00,VWS V14.01,2013-05-10 05:30:00,
2013-05-10 01:42:00,75.5,73.0,30.12,SE,133,4.0,7.0,90,0.00,,,0.00,0,weatherlink.com 1.10,2013-05-10 05:42:00,
2013-05-10 01:57:00,75.3,72.0,30.11,ESE,113,4.0,7.0,90,0.00,,,0.00,0,weatherlink.com 1.10,2013-05-10 05:57:00,
2013-05-10 02:00:00,75.3,72.2,30.11,ESE,112,4.0,8.0,90,0.00,,---,0.00,0.00,VWS V14.01,2013-05-10 06:00:00,
2013-05-10 02:12:00,75.4,72.0,30.11,ESE,107,4.0,6.0,89,0.00,,,0.00,0,weatherlink.com 1.10,2013-05-10 06:12:00,
2013-05-10 02:27:00,75.7,72.0,30.10,ESE,119,1.0,3.0,89,0.00,,,0.00,0,weatherlink.com 1.10,2013-05-10 06:27:00,
2013-05-10 02:30:00,75.7,72.2,30.10,ESE,112,3.0,6.0,89,0.00,,---,0.00,0.00,VWS V14.01,2013-05-10 06:30:00,
2013-05-10 02:42:00,75.9,73.0,30.10,South,186,3.0,4.0,90,0.00,,,0.00,0,weatherlink.com 1.10,2013-05-10 06:42:00,
2013-05-10 02:57:00,75.7,72.0,30.09,SSE,165,2.0,3.0,89,0.00,,,0.00,0,weatherlink.com 1.10,2013-05-10 06:57:00,
2013-05-10 03:00:00,75.7,72.2,30.09,ESE,112,2.0,4.0,89,0.00,,---,0.00,0.00,VWS V14.01,2013-05-10 07:00:00,
2013-05-10 03:12:00,75.6,72.0,30.09,SSE,155,3.0,4.0,89,0.00,,,0.00,0,weatherlink.com 1.10,2013-05-10 07:12:00,
2013-05-10 03:27:00,75.5,73.0,30.09,SSE,164,2.0,5.0,90,0.00,,,0.00,0,weatherlink.com 1.10,2013-05-10 07:27:00,
2013-05-10 03:30:00,75.5,72.4,30.09,SSE,158,2.0,6.0,90,0.00,,---,0.00,0.00,VWS V14.01,2013-05-10 07:30:00,
2013-05-10 03:42:00,75.4,72.0,30.09,SSE,167,2.0,5.0,89,0.00,,,0.00,0,weatherlink.com 1.10,2013-05-10 07:42:00,
2013-05-10 03:57:00,75.3,72.0,30.09,SSE,152,3.0,4.0,89,0.00,,,0.00,0,weatherlink.com 1.10,2013-05-10 07:57:00,
2013-05-10 04:00:00,75.3,71.8,30.09,SE,135,2.0,5.0,89,0.00,,---,0.00,0.00,VWS V14.01,2013-05-10 08:00:00,
2013-05-10 04:12:00,75.4,72.0,30.09,SSE,157,2.0,5.0,89,0.00,,,0.00,0,weatherlink.com 1.10,2013-05-10 08:12:00,
2013-05-10 04:27:00,75.4,72.0,30.08,ESE,113,2.0,4.0,90,0.00,,,0.00,0,weatherlink.com 1.10,2013-05-10 08:27:00,
2013-05-10 04:30:00,75.4,72.3,30.08,SE,135,2.0,5.0,90,0.00,,---,0.00,0.00,VWS V14.01,2013-05-10 08:30:00,
2013-05-10 04:42:00,75.4,72.0,30.09,ESE,117,0.0,3.0,90,0.00,,,0.00,0,weatherlink.com 1.10,2013-05-10 08:42:00,
2013-05-10 04:57:00,75.5,73.0,30.08,South,173,1.0,3.0,90,0.00,,,0.00,0,weatherlink.com 1.10,2013-05-10 08:57:00,
2013-05-10 05:00:00,75.5,72.4,30.08,ESE,112,2.0,3.0,90,0.00,,---,0.00,0.00,VWS V14.01,2013-05-10 09:00:00,
2013-05-10 05:12:00,75.3,72.0,30.07,South,176,1.0,4.0,90,0.00,,,0.00,0,weatherlink.com 1.10,2013-05-10 09:12:00,
2013-05-10 05:27:00,75.2,73.0,30.08,WSW,238,2.0,3.0,91,0.00,,,0.00,0,weatherlink.com 1.10,2013-05-10 09:27:00,
2013-05-10 05:30:00,75.2,72.4,30.08,South,180,1.0,4.0,91,0.00,,---,0.00,0.00,VWS V14.01,2013-05-10 09:30:00,
2013-05-10 05:42:00,75.1,72.0,30.07,WSW,254,2.0,3.0,91,0.00,,,0.00,0,weatherlink.com 1.10,2013-05-10 09:42:00,
2013-05-10 05:57:00,75.0,72.0,30.08,WSW,254,1.0,3.0,91,0.00,,,0.00,0,weatherlink.com 1.10,2013-05-10 09:57:00,
2013-05-10 06:00:00,75.0,72.2,30.08,WSW,248,2.0,3.0,91,0.00,,---,0.00,0.00,VWS V14.01,2013-05-10 10:00:00,
2013-05-10 06:12:00,74.9,73.0,30.08,WSW,254,1.0,2.0,92,0.00,,,0.00,0,weatherlink.com 1.10,2013-05-10 10:12:00,
2013-05-10 06:27:00,74.8,72.0,30.09,WSW,254,1.0,3.0,92,0.00,,,0.00,0,weatherlink.com 1.10,2013-05-10 10:27:00,
2013-05-10 06:30:00,74.8,72.3,30.08,WSW,248,1.0,2.0,92,0.00,,---,0.00,0.00,VWS V14.01,2013-05-10 10:30:00,
2013-05-10 06:42:00,74.7,72.0,30.08,SSW,209,1.0,3.0,92,0.00,,,0.00,11,weatherlink.com 1.10,2013-05-10 10:42:00,
2013-05-10 06:57:00,74.8,72.0,30.09,WSW,247,2.0,4.0,92,0.00,,,0.00,26,weatherlink.com 1.10,2013-05-10 10:57:00,
2013-05-10 07:00:00,74.8,72.3,30.09,WSW,248,2.0,4.0,92,0.00,,---,0.00,13.00,VWS V14.01,2013-05-10 11:00:00,
2013-05-10 07:12:00,75.2,73.0,30.09,South,186,4.0,4.0,93,0.00,,,0.00,58,weatherlink.com 1.10,2013-05-10 11:12:00,
2013-05-10 07:27:00,75.8,74.0,30.09,South,174,4.0,5.0,93,0.00,,,0.00,100,weatherlink.com 1.10,2013-05-10 11:27:00,
2013-05-10 07:30:00,75.9,73.7,30.09,South,180,3.0,5.0,93,0.00,,---,0.00,62.00,VWS V14.01,2013-05-10 11:30:00,
2013-05-10 07:42:00,76.5,74.0,30.09,South,190,5.0,5.0,92,0.00,,,0.00,141,weatherlink.com 1.10,2013-05-10 11:42:00,
2013-05-10 07:58:00,77.2,75.0,30.09,SSE,155,3.0,5.0,91,0.00,,,0.00,185,weatherlink.com 1.10,2013-05-10 11:58:00,
2013-05-10 08:00:00,77.2,74.4,30.09,South,180,3.0,5.0,91,0.00,,---,0.00,147.00,VWS V14.01,2013-05-10 12:00:00,
2013-05-10 08:13:00,77.7,74.0,30.09,ESE,105,2.0,5.0,89,0.00,,,0.00,251,weatherlink.com 1.10,2013-05-10 12:13:00,
2013-05-10 08:28:00,78.9,75.0,30.10,SE,128,2.0,4.0,88,0.00,,,0.00,292,weatherlink.com 1.10,2013-05-10 12:28:00,
2013-05-10 08:30:00,78.9,75.1,30.10,ESE,112,3.0,5.0,88,0.00,,---,0.00,250.00,VWS V14.01,2013-05-10 12:30:00,
2013-05-10 08:43:00,80.3,75.0,30.10,ESE,107,3.0,4.0,84,0.00,,,0.00,364,weatherlink.com 1.10,2013-05-10 12:43:00,
2013-05-10 08:58:00,81.7,75.0,30.10,South,188,3.0,5.0,81,0.00,,,0.00,415,weatherlink.com 1.10,2013-05-10 12:58:00,
2013-05-10 09:00:00,81.8,75.4,30.10,ESE,112,3.0,5.0,81,0.00,,---,0.00,364.00,VWS V14.01,2013-05-10 13:00:00,
2013-05-10 09:13:00,82.3,75.0,30.09,South,185,4.0,5.0,79,0.00,,,0.00,475,weatherlink.com 1.10,2013-05-10 13:13:00,
2013-05-10 09:28:00,82.7,74.0,30.10,ESE,113,4.0,5.0,76,0.00,,,0.00,520,weatherlink.com 1.10,2013-05-10 13:28:00,
2013-05-10 09:30:00,82.7,74.4,30.10,South,180,3.0,5.0,76,0.00,,---,0.00,471.00,VWS V14.01,2013-05-10 13:30:00,
2013-05-10 09:43:00,83.2,74.0,30.10,ESE,115,5.0,5.0,74,0.00,,,0.00,573,weatherlink.com 1.10,2013-05-10 13:43:00,
2013-05-10 09:58:00,83.7,74.0,30.11,South,173,5.0,10.0,73,0.00,,,0.00,666,weatherlink.com 1.10,2013-05-10 13:58:00,
2013-05-10 10:00:00,83.7,74.1,30.11,ESE,112,4.0,10.0,73,0.00,,---,0.00,576.00,VWS V14.01,2013-05-10 14:00:00,
2013-05-10 10:13:00,84.0,73.0,30.11,SE,134,3.0,9.0,70,0.00,,,0.00,687,weatherlink.com 1.10,2013-05-10 14:13:00,
2013-05-10 10:28:00,84.8,74.0,30.11,ESE,111,4.0,8.0,69,0.00,,,0.00,728,weatherlink.com 1.10,2013-05-10 14:28:00,
2013-05-10 10:30:00,84.8,73.5,30.11,SSE,158,5.0,10.0,69,0.00,,---,0.00,686.00,VWS V14.01,2013-05-10 14:30:00,
2013-05-10 10:43:00,85.4,73.0,30.11,SE,130,5.0,11.0,66,0.00,,,0.00,773,weatherlink.com 1.10,2013-05-10 14:43:00,
2013-05-10 10:58:00,86.1,73.0,30.11,ESE,113,3.0,9.0,66,0.00,,,0.00,807,weatherlink.com 1.10,2013-05-10 14:58:00,
2013-05-10 11:00:00,86.1,73.4,30.11,SE,135,4.0,11.0,66,0.00,,---,0.00,771.00,VWS V14.01,2013-05-10 15:00:00,
2013-05-10 11:13:00,86.8,73.0,30.10,SSE,157,4.0,7.0,64,0.00,,,0.00,849,weatherlink.com 1.10,2013-05-10 15:13:00,
2013-05-10 11:28:00,87.5,73.0,30.10,SE,133,5.0,8.0,63,0.00,,,0.00,875,weatherlink.com 1.10,2013-05-10 15:28:00,
2013-05-10 11:30:00,87.5,73.4,30.10,SE,135,4.0,10.0,63,0.00,,---,0.00,846.00,VWS V14.01,2013-05-10 15:30:00,
2013-05-10 11:43:00,87.4,73.0,30.10,SSE,167,5.0,9.0,62,0.00,,,0.00,907,weatherlink.com 1.10,2013-05-10 15:43:00,
2013-05-10 11:59:00,86.8,73.0,30.10,ESE,122,7.0,8.0,63,0.00,,,0.00,935,weatherlink.com 1.10,2013-05-10 15:59:00,
2013-05-10 12:00:00,86.8,72.7,30.10,SE,135,5.0,9.0,63,0.00,,---,0.00,908.00,VWS V14.01,2013-05-10 16:00:00,
2013-05-10 12:14:00,87.1,73.0,30.10,ESE,117,5.0,7.0,64,0.00,,,0.00,937,weatherlink.com 1.10,2013-05-10 16:14:00,
2013-05-10 12:29:00,87.1,74.0,30.09,ESE,123,4.0,10.0,65,0.00,,,0.00,963,weatherlink.com 1.10,2013-05-10 16:29:00,
2013-05-10 12:30:00,87.2,74.0,30.09,SE,135,5.0,10.0,65,0.00,,---,0.00,944.00,VWS V14.01,2013-05-10 16:30:00,
2013-05-10 12:44:00,86.9,75.0,30.09,SSE,155,5.0,8.0,68,0.00,,,0.00,967,weatherlink.com 1.10,2013-05-10 16:44:00,
2013-05-10 12:59:00,86.9,76.0,30.09,SE,138,5.0,8.0,69,0.00,,,0.00,1002,weatherlink.com 1.10,2013-05-10 16:59:00,
2013-05-10 13:00:00,86.9,75.5,30.09,SSE,158,5.0,8.0,69,0.00,,---,0.00,979.00,VWS V14.01,2013-05-10 17:00:00,
2013-05-10 13:14:00,87.7,75.0,30.09,ESE,117,4.0,8.0,67,0.00,,,0.00,1009,weatherlink.com 1.10,2013-05-10 17:14:00,
2013-05-10 13:29:00,87.7,75.0,30.08,ESE,123,4.0,9.0,66,0.00,,,0.00,984,weatherlink.com 1.10,2013-05-10 17:29:00,
2013-05-10 13:30:00,87.8,75.0,30.08,ESE,112,5.0,9.0,66,0.00,,---,0.00,999.00,VWS V14.01,2013-05-10 17:30:00,
2013-05-10 13:44:00,87.5,75.0,30.08,SSE,152,8.0,10.0,67,0.00,,,0.00,990,weatherlink.com 1.10,2013-05-10 17:44:00,
2013-05-10 13:59:00,86.3,75.0,30.08,South,182,6.0,9.0,70,0.00,,,0.00,935,weatherlink.com 1.10,2013-05-10 17:59:00,
2013-05-10 14:00:00,86.3,74.9,30.08,SSE,158,6.0,10.0,69,0.00,,---,0.00,967.00,VWS V14.01,2013-05-10 18:00:00,
2013-05-10 14:14:00,86.1,75.0,30.08,SSW,200,5.0,7.0,70,0.00,,,0.00,962,weatherlink.com 1.10,2013-05-10 18:14:00,
2013-05-10 14:29:00,86.4,76.0,30.07,South,184,7.0,11.0,71,0.00,,,0.00,940,weatherlink.com 1.10,2013-05-10 18:29:00,
2013-05-10 14:30:00,86.4,75.9,30.07,South,180,6.0,11.0,71,0.00,,---,0.00,958.00,VWS V14.01,2013-05-10 18:30:00,
2013-05-10 14:44:00,85.6,75.0,30.06,SSW,198,7.0,11.0,71,0.00,,,0.00,981,weatherlink.com 1.10,2013-05-10 18:44:00,
2013-05-10 14:59:00,84.6,75.0,30.06,SE,138,8.0,11.0,73,0.00,,,0.00,972,weatherlink.com 1.10,2013-05-10 18:59:00,
2013-05-10 15:00:00,84.6,75.0,30.06,SSE,158,8.0,11.0,73,0.00,,---,0.00,942.00,VWS V14.01,2013-05-10 19:00:00,
2013-05-10 15:14:00,84.1,75.0,30.04,South,186,10.0,13.0,74,0.00,,,0.00,926,weatherlink.com 1.10,2013-05-10 19:14:00,
2013-05-10 15:29:00,82.6,75.0,30.05,South,170,9.0,12.0,77,0.00,,,0.00,77,weatherlink.com 1.10,2013-05-10 19:29:00,
2013-05-10 15:30:00,82.6,74.7,30.05,South,180,9.0,13.0,77,0.00,,---,0.00,586.00,VWS V14.01,2013-05-10 19:30:00,
2013-05-10 15:44:00,81.4,75.0,30.05,SE,128,2.0,11.0,80,0.00,,,0.00,39,weatherlink.com 1.10,2013-05-10 19:44:00,
2013-05-10 15:59:00,80.8,75.0,30.07,SSE,149,2.0,5.0,82,0.00,,,0.00,42,weatherlink.com 1.10,2013-05-10 19:59:00,
2013-05-10 16:00:00,80.9,74.9,30.06,SSE,158,5.0,11.0,82,0.00,,---,0.00,52.00,VWS V14.01,2013-05-10 20:00:00,
2013-05-10 16:14:00,80.3,75.0,30.05,South,186,5.0,6.0,83,0.02,,,0.02,121,weatherlink.com 1.10,2013-05-10 20:14:00,
2013-05-10 16:29:00,80.0,76.0,30.05,South,180,4.0,7.0,87,0.02,,,0.02,833,weatherlink.com 1.10,2013-05-10 20:29:00,
2013-05-10 16:30:00,80.0,75.8,30.05,SSE,158,4.0,7.0,87,0.02,,---,0.02,217.00,VWS V14.01,2013-05-10 20:30:00,
2013-05-10 16:44:00,80.6,77.0,30.04,SSE,150,6.0,7.0,87,0.02,,,0.02,664,weatherlink.com 1.10,2013-05-10 20:44:00,
2013-05-10 16:59:00,81.6,76.0,30.03,South,180,7.0,8.0,83,0.02,,,0.02,703,weatherlink.com 1.10,2013-05-10 20:59:00,
2013-05-10 17:00:00,81.5,75.8,30.03,SSE,158,5.0,8.0,83,0.02,,---,0.02,791.00,VWS V14.01,2013-05-10 21:00:00,
2013-05-10 17:14:00,82.5,76.0,30.03,SSW,192,4.0,7.0,80,0.00,,,0.02,599,weatherlink.com 1.10,2013-05-10 21:14:00,
2013-05-10 17:29:00,83.4,76.0,30.03,SSW,195,8.0,8.0,79,0.00,,,0.02,517,weatherlink.com 1.10,2013-05-10 21:29:00,
2013-05-10 17:30:00,83.3,76.1,30.03,SSW,202,5.0,9.0,79,0.02,,---,0.02,605.00,VWS V14.01,2013-05-10 21:30:00,
2013-05-10 17:44:00,83.7,75.0,30.02,SSW,205,6.0,9.0,76,0.00,,,0.02,290,weatherlink.com 1.10,2013-05-10 21:44:00,
2013-05-10 17:59:00,82.8,75.0,30.03,ESE,117,7.0,10.0,77,0.00,,,0.02,371,weatherlink.com 1.10,2013-05-10 21:59:00,
2013-05-10 18:00:00,82.8,74.9,30.02,SSW,202,6.0,10.0,77,0.00,,---,0.02,430.00,VWS V14.01,2013-05-10 22:00:00,
2013-05-10 18:14:00,82.2,75.0,30.03,South,169,6.0,9.0,78,0.00,,,0.02,301,weatherlink.com 1.10,2013-05-10 22:14:00,
2013-05-10 18:29:00,82.4,75.0,30.03,SSE,148,4.0,7.0,78,0.00,,,0.02,276,weatherlink.com 1.10,2013-05-10 22:29:00,
2013-05-10 18:30:00,82.3,74.8,30.03,SE,135,5.0,9.0,78,0.00,,---,0.02,318.00,VWS V14.01,2013-05-10 22:30:00,
2013-05-10 18:44:00,82.6,75.0,30.03,ESE,106,5.0,8.0,77,0.00,,,0.02,162,weatherlink.com 1.10,2013-05-10 22:44:00,
2013-05-10 18:59:00,82.1,75.0,30.04,SSE,158,4.0,7.0,78,0.00,,,0.02,67,weatherlink.com 1.10,2013-05-10 22:59:00,
2013-05-10 19:00:00,82.1,74.2,30.03,SSE,158,4.0,8.0,77,0.00,,---,0.02,172.00,VWS V14.01,2013-05-10 23:00:00,
2013-05-10 19:14:00,81.4,74.0,30.04,ESE,118,2.0,7.0,79,0.00,,,0.02,88,weatherlink.com 1.10,2013-05-10 23:14:00,
2013-05-10 19:29:00,80.9,74.0,30.05,East,97,6.0,11.0,80,0.00,,,0.02,53,weatherlink.com 1.10,2013-05-10 23:29:00,
2013-05-10 19:30:00,80.9,74.2,30.04,SE,135,4.0,11.0,80,0.00,,---,0.02,82.00,VWS V14.01,2013-05-10 23:30:00,
2013-05-10 19:44:00,80.3,74.0,30.04,SSE,162,6.0,11.0,82,0.00,,,0.02,18,weatherlink.com 1.10,2013-05-10 23:44:00,
2013-05-10 19:59:00,79.4,74.0,30.05,SSE,160,5.0,10.0,82,0.00,,,0.02,0,weatherlink.com 1.10,2013-05-10 23:59:00,
2013-05-10 20:00:00,79.5,73.5,30.05,SSE,158,5.0,11.0,82,0.00,,---,0.02,16.00,VWS V14.01,2013-05-11 00:00:00,
2013-05-10 20:14:00,79.0,74.0,30.06,SSE,161,7.0,11.0,84,0.00,,,0.02,0,weatherlink.com 1.10,2013-05-11 00:14:00,
2013-05-10 20:29:00,78.8,73.0,30.06,SSE,165,3.0,9.0,83,0.00,,,0.02,0,weatherlink.com 1.10,2013-05-11 00:29:00,
2013-05-10 20:30:00,78.8,73.6,30.06,SSE,158,5.0,11.0,84,0.00,,---,0.02,0.00,VWS V14.01,2013-05-11 00:30:00,
2013-05-10 20:44:00,77.5,69.0,30.05,ESE,111,1.0,6.0,75,0.00,,,0.02,0,weatherlink.com 1.10,2013-05-11 00:44:00,
2013-05-10 20:59:00,77.3,69.0,30.05,ESE,118,3.0,7.0,75,0.00,,,0.02,0,weatherlink.com 1.10,2013-05-11 00:59:00,
2013-05-10 21:00:00,77.3,68.8,30.05,East,90,3.0,8.0,75,0.00,,---,0.02,0.00,VWS V14.01,2013-05-11 01:00:00,
2013-05-10 21:14:00,77.0,69.0,30.04,South,180,4.0,6.0,75,0.00,,,0.02,0,weatherlink.com 1.10,2013-05-11 01:14:00,
2013-05-10 21:29:00,76.9,69.0,30.05,SE,142,3.0,5.0,76,0.00,,,0.02,0,weatherlink.com 1.10,2013-05-11 01:29:00,
2013-05-10 21:30:00,76.9,68.8,30.05,SSE,158,3.0,7.0,76,0.00,,---,0.02,0.00,VWS V14.01,2013-05-11 01:30:00,
2013-05-10 21:44:00,76.9,69.0,30.04,SSW,194,4.0,6.0,77,0.00,,,0.02,0,weatherlink.com 1.10,2013-05-11 01:44:00,
2013-05-10 21:59:00,76.9,69.0,30.04,SSE,157,5.0,7.0,76,0.00,,,0.02,0,weatherlink.com 1.10,2013-05-11 01:59:00,
2013-05-10 22:00:00,76.9,68.8,30.04,South,180,4.0,7.0,76,0.00,,---,0.02,0.00,VWS V14.01,2013-05-11 02:00:00,
2013-05-10 22:14:00,76.9,69.0,30.04,SE,136,4.0,7.0,76,0.00,,,0.02,0,weatherlink.com 1.10,2013-05-11 02:14:00,
2013-05-10 22:29:00,76.7,69.0,30.04,SE,138,3.0,8.0,76,0.00,,,0.02,0,weatherlink.com 1.10,2013-05-11 02:29:00,
2013-05-10 22:30:00,76.7,68.6,30.04,South,180,4.0,9.0,76,0.00,,---,0.02,0.00,VWS V14.01,2013-05-11 02:30:00,
2013-05-10 22:44:00,76.6,69.0,30.05,SSE,155,5.0,7.0,77,0.00,,,0.02,0,weatherlink.com 1.10,2013-05-11 02:44:00,
2013-05-10 22:59:00,76.2,69.0,30.05,SSE,159,4.0,6.0,77,0.00,,,0.02,0,weatherlink.com 1.10,2013-05-11 02:59:00,
2013-05-10 23:00:00,76.3,68.6,30.05,SSE,158,4.0,7.0,77,0.00,,---,0.02,0.00,VWS V14.01,2013-05-11 03:00:00,
2013-05-10 23:14:00,76.1,69.0,30.05,South,177,2.0,4.0,78,0.00,,,0.02,0,weatherlink.com 1.10,2013-05-11 03:14:00,
2013-05-10 23:29:00,75.9,69.0,30.05,South,184,2.0,6.0,79,0.00,,,0.02,0,weatherlink.com 1.10,2013-05-11 03:29:00,
2013-05-10 23:30:00,75.9,68.9,30.05,South,180,2.0,6.0,79,0.00,,---,0.02,0.00,VWS V14.01,2013-05-11 03:30:00,
2013-05-10 23:44:00,75.7,69.0,30.06,South,184,1.0,2.0,80,0.00,,,0.02,0,weatherlink.com 1.10,2013-05-11 03:44:00,
2013-05-10 23:59:00,75.5,69.0,30.06,South,184,0.0,3.0,81,0.00,,,0.00,0,weatherlink.com 1.10,2013-05-11 03:59:00,